This is the latest recevied weather packets stored in our database for station/object W5DRO-13. If no packets are shown the sender has not sent any weather packets the latest 10 day(s).
| Time | Temp. | Humidity | Pressure | Rain* | Wind** | Luminosity | Snow |
|---|---|---|---|---|---|---|---|
| 1777839998 | 31.11° C | 24% | 1014.7 hPa | 0 mm | - | - | - |
| 1777839697 | 31.11° C | 23% | 1014.7 hPa | 0 mm | - | - | - |
| 1777839394 | 31.11° C | 22% | 1014.8 hPa | 0 mm | - | - | - |
| 1777839091 | 31.11° C | 24% | 1014.9 hPa | 0 mm | - | - | - |
| 1777838787 | 31.11° C | 24% | 1015 hPa | 0 mm | - | - | - |
| 1777838484 | 31.67° C | 21% | 1015.3 hPa | 0 mm | - | - | - |
| 1777838181 | 31.11° C | 23% | 1015.2 hPa | 0 mm | - | - | - |
| 1777837878 | 31.11° C | 23% | 1015.4 hPa | 0 mm | - | - | - |
| 1777837575 | 31.11° C | 23% | 1015.3 hPa | 0 mm | - | - | - |
| 1777837270 | 31.11° C | 23% | 1015.3 hPa | 0 mm | - | - | - |
| 1777836967 | 31.67° C | 22% | 1015.4 hPa | 0 mm | - | - | - |
| 1777836662 | 32.22° C | 23% | 1015.6 hPa | 0 mm | - | - | - |
| 1777836358 | 31.67° C | 23% | 1015.5 hPa | 0 mm | - | - | - |
| 1777836054 | 31.11° C | 23% | 1015.6 hPa | 0 mm | - | - | - |
| 1777835751 | 31.11° C | 21% | 1015.7 hPa | 0 mm | - | - | - |
| 1777835448 | 31.11° C | 21% | 1015.8 hPa | 0 mm | - | - | - |
| 1777835145 | 31.11° C | 23% | 1015.8 hPa | 0 mm | - | - | - |
| 1777834842 | 31.11° C | 23% | 1015.9 hPa | 0 mm | - | - | - |
| 1777834539 | 31.11° C | 22% | 1015.8 hPa | 0 mm | - | - | - |
| 1777834238 | 30.56° C | 26% | 1016 hPa | 0 mm | - | - | - |
| 1777833935 | 30.56° C | 25% | 1016 hPa | 0 mm | - | - | - |
| 1777833631 | 31.11° C | 26% | 1016 hPa | 0 mm | - | - | - |
| 1777833328 | 30.56° C | 26% | 1016.1 hPa | 0 mm | - | - | - |
| 1777833025 | 30.56° C | 28% | 1016.2 hPa | 0 mm | - | - | - |
| 1777832723 | 30.56° C | 27% | 1016.4 hPa | 0 mm | - | - | - |
* Rain latest hour (hover to see other rain measurements)
** Current wind speed in m/s (hover to see current wind gust speed)